CZ-4 DEB

Satellite information

Favourite Embed

Satellite Type and Status

DEBRISIN ORBIT

Key statistics

Satellite CZ-4 DEB at a glance.

Uptime

12727

Days in orbit

Revolutions

≈ 14.1

Per day

Orbit

SSO

Sun Synchronous Orbit

Inclination

98.9

Latest

Satellite identification and parameters

Extended collection of information and parameters for CZ-4 DEB.

Object identification

Identified? True

Debris? True

Object name: CZ-4 DEB

International designator: 1990-081DF

Object number (NORAD): 37619

Object ID (CCSDS): 37619

Country: PEOPLES REPUBLIC OF CHINA (PRC)

Current information (Y/N): Y

RCS size: SMALL

Orbital parameters

Period: 102.27 minutes

Inclination: 98.8517 deg

SMA: 7244.227 km

Apoapsis: 873.174 km

Periapsis: 859.009 km

RAAN: 152.7011 deg

Eccentricy: 0.0009777

Argument of periapsis: 264.8191 deg

Mean anomaly: 95.1863 deg

Mean motion: 14.08039084 rev/day

Mean motion (dot): 0.00000167 rev/day2

B* drag term: 0.0001239 1/REarth

Two-line elements (TLE)

Creation date: June 26, 2025, 2:59 a.m.

Reference frame: TEME

Reference center: EARTH

Epoch: June 25, 2025, 4:02 p.m. UTC

TLE line 0: 0 CZ-4 DEB

TLE line 1: 1 37619U 90081DF 25176.66807505 .00000167 00000-0 12390-3 0 9994

TLE line 2: 2 37619 98.8517 152.7011 0009777 264.8191 95.1863 14.08039084615814

Live tracking on map

Real-time ground track for satellite CZ-4 DEB.

In-orbit conjunctions

A list of the most updated potential collisions computed for object CZ-4 DEB.

Target Orbit TCA Probability of collision Miss distance Type
COSMOS 1275 DEB LEO 2025-05-07 08:00:45 0.0001062836 152.0 (m) DEBRIS
SL-16 DEB LEO 2024-11-13 08:29:12 0.0004547586 287.0 (m) DEBRIS
RADCAL LEO 2024-11-02 08:51:58 0.001439534 101.0 (m) PAYLOAD

Associated space launch

Chinese polar orbiting meteorological satellite

CZ-4 DEB was lifted into orbit during the mission ‘Long March 4A | Feng Yun 1B’, on board a Long March 4A space rocket.

The launch took place on Sept. 3, 1990, 12:53 a.m. from Launch Complex 7.

For more information about the launch, click the button.

Launch to space Long March 4A | Feng Yun 1B
Long March 4A | Feng Yun 1B

Agency: N/A

Status: Launch Successful

Launch date: Sept. 3, 1990, 12:53 a.m. UTC

Rocket: Long March 4A

Launch pad: Launch Complex 7

Location: Taiyuan Satellite Launch Center, People's Republic of China

...

Latest news about this satellite

There are no fresh news available about this satellite. Check back as we update our databases every day.


Newsletter sign-up

Weekly statistics, charts and insights to help you stay on top of the space industry.